DW4127 Weather Reports


Display with metric or nautical units.
time (UTC)temp
F
wind
direction
speed
MPH
gust
MPH
rain 1hr
in
rain 24hr
in
rain mn
in
humidity
%
barometer
mb
20260504234609 79 180 7.0 14.0 0.00 0.00 0.00 62 1005.7
20260504233549 79 180 10.0 21.0 0.00 0.00 0.00 61 1005.7
20260504232549 79 180 10.0 19.0 0.00 0.00 0.00 61 1005.6
20260504231549 79 180 10.0 21.0 0.00 0.00 0.00 60 1005.7
20260504230609 80 180 9.0 19.0 0.00 0.00 0.00 60 1005.9
20260504225549 80 203 7.0 18.0 0.00 0.00 0.00 59 1005.9
20260504224547 81 180 9.0 19.0 0.00 0.00 0.00 59 1006.2
20260504223549 81 180 10.0 19.0 0.00 0.00 0.00 59 1006.2
20260504222549 81 180 6.0 12.0 0.00 0.00 0.00 60 1006.1
20260504221609 81 203 7.0 16.0 0.00 0.00 0.00 58 1006.2
20260504220549 81 180 6.0 13.0 0.00 0.00 0.00 59 1006.5
20260504215549 81 180 9.0 16.0 0.00 0.00 0.00 58 1006.6
20260504214549 82 203 6.0 16.0 0.00 0.00 0.00 57 1006.7
20260504213609 81 180 8.0 18.0 0.00 0.00 0.00 58 1006.8
20260504212549 81 180 9.0 20.0 0.00 0.00 0.00 57 1006.9
20260504211609 82 158 9.0 20.0 0.00 0.00 0.00 57 1007.2
20260504210549 81 180 9.0 18.0 0.00 0.00 0.00 57 1007.3
20260504205549 81 158 10.0 23.0 0.00 0.00 0.00 57 1007.5
20260504204549 81 180 6.0 14.0 0.00 0.00 0.00 57 1007.7
20260504203549 81 203 11.0 20.0 0.00 0.00 0.00 57 1008.0
20260504202549 80 158 10.0 21.0 0.00 0.00 0.00 56 1008.1
20260504201549 81 180 9.0 22.0 0.00 0.00 0.00 56 1008.3
20260504200549 82 203 7.0 15.0 0.00 0.00 0.00 56 1008.7
20260504195549 81 203 9.0 18.0 0.00 0.00 0.00 55 1008.7
20260504194549 81 203 7.0 17.0 0.00 0.00 0.00 55 1008.9
20260504193609 81 180 6.0 16.0 0.00 0.00 0.00 55 1009.0
20260504192549 80 203 8.0 18.0 0.00 0.00 0.00 55 1009.2
20260504191548 80 203 9.0 19.0 0.00 0.00 0.00 55 1009.5
20260504190548 80 180 8.0 16.0 0.00 0.00 0.00 54 1009.6
20260504185609 80 225 7.0 12.0 0.00 0.00 0.00 56 1009.6
20260504184548 79 180 8.0 16.0 0.00 0.00 0.00 54 1009.5
20260504183548 79 180 9.0 17.0 0.00 0.00 0.00 54 1010.0
20260504182549 79 180 8.0 15.0 0.00 0.00 0.00 53 1010.1
20260504181549 79 203 7.0 13.0 0.00 0.00 0.00 53 1010.4
20260504180548 78 203 9.0 18.0 0.00 0.00 0.00 52 1010.2
20260504175548 78 158 10.0 24.0 0.00 0.00 0.00 51 1010.3
20260504174608 78 180 7.0 17.0 0.00 0.00 0.00 51 1010.7
20260504173548 78 180 9.0 16.0 0.00 0.00 0.00 51 1010.8
20260504172549 77 180 7.0 16.0 0.00 0.00 0.00 52 1010.8
20260504171548 77 180 8.0 17.0 0.00 0.00 0.00 51 1011.1
20260504170549 76 180 10.0 20.0 0.00 0.00 0.00 52 1011.3
20260504150629 70 180 6.0 15.0 0.00 0.00 0.00 66 1012.4
20260504140608 67 225 8.0 22.0 0.00 0.00 0.00 68 1012.8
20260504130548 64 180 7.0 14.0 0.00 0.00 0.00 72 1012.7
20260504110548 63 203 6.0 18.0 0.00 0.00 0.00 69 1012.1
20260504100548 63 180 4.0 10.0 0.00 0.00 0.00 71 1012.6
20260504081548 65 180 4.0 8.0 0.00 0.00 0.00 64 1013.1
20260504080548 65 203 4.0 11.0 0.00 0.00 0.00 63 1013.2
20260504050548 69 180 4.0 10.0 0.00 0.00 0.00 56 1015.0
20260504045547 69 180 4.0 9.0 0.00 0.00 0.00 56 1015.2
20260504044547 69 180 3.0 6.0 0.00 0.00 0.00 55 1015.3
20260504043547 69 203 3.0 9.0 0.00 0.00 0.00 54 1015.2
20260504042547 70 203 3.0 8.0 0.00 0.00 0.00 54 1015.3
20260504041547 70 180 4.0 9.0 0.00 0.00 0.00 53 1015.3
20260504040547 70 180 4.0 12.0 0.00 0.00 0.00 53 1015.3
20260504035547 70 180 3.0 10.0 0.00 0.00 0.00 53 1015.3
20260504034547 71 158 3.0 10.0 0.00 0.00 0.00 52 1015.3
20260504033547 71 203 3.0 8.0 0.00 0.00 0.00 51 1015.3
20260504032547 71 203 3.0 8.0 0.00 0.00 0.00 50 1015.2
20260504031547 72 180 3.0 10.0 0.00 0.00 0.00 49 1015.1
20260504030607 72 180 3.0 7.0 0.00 0.00 0.00 49 1015.1
20260504025547 72 180 3.0 9.0 0.00 0.00 0.00 48 1014.9
20260504024547 72 180 4.0 10.0 0.00 0.00 0.00 47 1014.9
20260504023547 73 203 4.0 10.0 0.00 0.00 0.00 47 1015.0
20260504022547 73 180 4.0 9.0 0.00 0.00 0.00 46 1015.1
20260504021547 73 180 3.0 6.0 0.00 0.00 0.00 46 1015.1
20260504020547 74 180 5.0 11.0 0.00 0.00 0.00 45 1014.9
20260504015547 74 180 4.0 10.0 0.00 0.00 0.00 44 1014.8
20260504014547 74 180 5.0 10.0 0.00 0.00 0.00 44 1014.8
20260504013547 75 180 4.0 12.0 0.00 0.00 0.00 43 1014.7
20260504012547 75 158 4.0 10.0 0.00 0.00 0.00 43 1014.7
20260504011547 75 135 3.0 8.0 0.00 0.00 0.00 43 1014.6
20260504010547 76 180 4.0 10.0 0.00 0.00 0.00 42 1014.6
20260504005547 76 203 6.0 13.0 0.00 0.00 0.00 40 1014.5
20260504004547 77 180 5.0 13.0 0.00 0.00 0.00 39 1014.5
20260504003549 77 180 5.0 12.0 0.00 0.00 0.00 39 1014.5
20260504002549 77 180 6.0 14.0 0.00 0.00 0.00 38 1014.5
20260504001549 78 180 6.0 13.0 0.00 0.00 0.00 37 1014.5
20260504000549 78 203 5.0 12.0 0.00 0.00 0.00 37 1014.7
20260503235609 79 203 7.0 13.0 0.00 0.00 0.00 37 1014.5